Location: Hilton Head Island
(32.2163°N, 80.7526°W)
Time: 14:49:15
(UTC-04:00)

Vanguard 1 - Pass Details

Date: 20 February 2026
Orbit: 653 x 3818 km, 34.2° (Epoch: 9 March)

Event Time Altitude Azimuth Distance (km) Brightness Sun altitude
Rises 15:16:07 0° 252° (WSW) 4,127 14.2 32.6°
Reaches altitude 10° 15:18:22 10° 252° (WSW) 3,427 14.0 32.3°
Maximum altitude 15:27:29 87° 165° (SSE) 2,054 12.2 30.8°
Drops below altitude 10° 15:45:06 10° 78° (ENE) 6,160 13.7 27.8°
Sets 15:50:45 0° 78° (ENE) 7,533 14.1 26.9°
